CZ-6A DEB, 54386

Orbit data source: Space-Track

CZ-6A DEB, 54386 is space debris in SSO originally from a launch on Fri, 11 Nov 2022 UTC launched from the Taiyaun Space Center, China (TSC). Debris objects in space refer to the collection of defunct objects orbiting the Earth. Examples of debris include non-operational satellites, rocket bodies, and fragments generated from explosions, collisions, or faulty payload assembly.

Loading next visibility...
Identifier
54386, 2022-151DJ
Orbit
SSO
Country
Flag of CNCN / PRC
Related business
Manufacturer
SAST
Mission
Spacecraft
Bus & Motor
Unknown
Mass
Unknown
Launch date (UTC)
2022-11-11 (4 years ago)
Launch vehicle
Unknown
Launch site
Taiyaun Space Center, China (TSC)
Object type
Payload
Rocket body
Debris
Shape & HBR
Unknown shape, 0.1 m
Radar Cross Section
Medium (>0.1 m² and <1 m²)

Expand to show TLE details & history
Last TLE update: 16 hours ago

TLE from 16 hours ago
0 CZ-6A DEB
1 54386U 22151DJ  26263.45602898  .00000346  00000-0  25579-3 0  9992
2 54386  98.9426 240.9295 0127332 183.5261 176.5018 13.98029181196052
Epoch: 2026-09-20T10:56Z
TLE epoch observation values (Epoch: 2026-09-20T10:56:40.903Z)
Latitude
-0.00001°
Longitude
77.40912°
Altitude
996.037 km
Speed
7.307 km/s
True Right ascension
16h 03m 43s
True Declination
0° 00' 00"
Sunlit
Object was in daylight at epoch
Visualization orbit readout
Latitude
Unknown
Longitude
Unknown
Altitude
Unknown
Speed
Unknown
Apparent Right ascension
Unknown
Apparent Declination
Unknown
Sunlit
N/A
Visualization observer readout
Local Sidereal Time
20:10:04
Azimuth
Unknown
Elevation
Unknown
Doppler factor
Unknown
Orbital elements
Apogee altitude
990.473 km
Perigee altitude
805.18 km
Semi-major axis
7,275.963 km
Eccentricity
0.01273
Inclination
98.9426°
RAAN
240.9295°
Arg. of periapsis
183.5261°
True anomaly
176.58944°
Mean anomaly
176.5018°
Eccentric anomaly
176.54576°
Mean motion
3.49709 °/min
Orbital period
102.94 mins
BSTAR
0.00025579
Loading maneuver chart data...
Computing Atmospheric mass density...

Documentation

Showing up to 5 results
|